This is the latest recevied weather packets stored in our database for station/object KG4ZVW. If no packets are shown the sender has not sent any weather packets the latest 10 day(s).
| Time | Temp. | Humidity | Pressure | Rain* | Wind** | Luminosity | Snow |
|---|---|---|---|---|---|---|---|
| 1778009304 | 28.33° C | 54% | 1015.3 hPa | 0 mm | - | 803 W/m² | - |
| 1778009021 | 28.33° C | 50% | 1015.4 hPa | 0 mm | - | 817 W/m² | - |
| 1778008713 | 28.33° C | 51% | 1015.4 hPa | 0 mm | - | 835 W/m² | - |
| 1778008410 | 28.33° C | 52% | 1015.4 hPa | 0 mm | - | 833 W/m² | - |
| 1778008104 | 27.78° C | 50% | 1015.5 hPa | 0 mm | - | 846 W/m² | - |
| 1778007819 | 27.78° C | 51% | 1015.5 hPa | 0 mm | - | 847 W/m² | - |
| 1778007515 | 27.78° C | 54% | 1015.5 hPa | 0 mm | - | 854 W/m² | - |
| 1778007209 | 27.78° C | 52% | 1015.6 hPa | 0 mm | - | 870 W/m² | - |
| 1778006905 | 27.78° C | 56% | 1015.6 hPa | 0 mm | - | 881 W/m² | - |
| 1778006621 | 27.78° C | 53% | 1015.6 hPa | 0 mm | - | 905 W/m² | - |
| 1778006315 | 28.33° C | 56% | 1016 hPa | 0 mm | - | 904 W/m² | - |
| 1778006011 | 28.33° C | 57% | 1016 hPa | 0 mm | - | 916 W/m² | - |
| 1778005706 | 28.33° C | 56% | 1016 hPa | 0 mm | - | 911 W/m² | - |
| 1778005419 | 27.78° C | 55% | 1016 hPa | 0 mm | - | 900 W/m² | - |
| 1778005114 | 27.78° C | 56% | 1016 hPa | 0 mm | - | 946 W/m² | - |
| 1778004809 | 27.78° C | 55% | 1016 hPa | 0 mm | - | 935 W/m² | - |
| 1778004504 | 27.78° C | 53% | 1016 hPa | 0 mm | - | 939 W/m² | - |
| 1778004219 | 27.78° C | 55% | 1016 hPa | 0 mm | - | 930 W/m² | - |
| 1778003913 | 27.78° C | 55% | 1016 hPa | 0 mm | - | 919 W/m² | - |
| 1778003608 | 27.78° C | 53% | 1016.1 hPa | 0 mm | - | 953 W/m² | - |
| 1778003303 | 27.78° C | 55% | 1016.1 hPa | 0 mm | - | 218 W/m² | - |
| 1778003020 | 27.78° C | 59% | 1016.1 hPa | 0 mm | - | 909 W/m² | - |
| 1778002712 | 27.78° C | 53% | 1016.1 hPa | 0 mm | - | 976 W/m² | - |
| 1778002410 | 27.78° C | 54% | 1016.1 hPa | 0 mm | - | 1005 W/m² | - |
| 1778002105 | 27.78° C | 55% | 1016.1 hPa | 0 mm | - | 334 W/m² | - |
* Rain latest hour (hover to see other rain measurements)
** Current wind speed in m/s (hover to see current wind gust speed)